Time,TemperatureF,DewpointF,PressureIn,WindDirection,WindDirectionDegrees,WindSpeedMPH,WindSpeedGustMPH,Humidity,HourlyPrecipIn,Conditions,Clouds,dailyrainin,SoftwareType,DateUTC
2013-02-21 00:01:00,15.0,12.0,30.40,North,351,0.0,1.0,87,0.00,,,0.00,,2013-02-21 06:01:00,
2013-02-21 00:11:00,15.0,12.0,30.40,North,351,0.0,1.0,87,0.00,,,0.00,,2013-02-21 06:11:00,
2013-02-21 00:21:00,15.0,12.0,30.40,North,351,0.0,0.0,87,0.00,,,0.00,,2013-02-21 06:21:00,
2013-02-21 00:31:00,15.0,12.0,30.40,North,351,0.0,0.0,88,0.00,,,0.00,,2013-02-21 06:31:00,
2013-02-21 00:41:00,15.0,12.0,30.40,North,351,0.0,0.0,88,0.00,,,0.00,,2013-02-21 06:41:00,
2013-02-21 00:51:00,15.0,12.0,30.40,North,351,0.0,1.0,88,0.00,,,0.00,,2013-02-21 06:51:00,
2013-02-21 01:01:00,15.0,12.0,30.40,North,351,0.0,0.0,89,0.00,,,0.00,,2013-02-21 07:01:00,
2013-02-21 01:11:00,15.0,12.0,30.39,North,351,0.0,1.0,88,0.00,,,0.00,,2013-02-21 07:11:00,
2013-02-21 01:21:00,15.0,12.0,30.39,North,351,0.0,1.0,88,0.00,,,0.00,,2013-02-21 07:21:00,
2013-02-21 01:32:00,15.0,12.0,30.39,North,351,0.0,0.0,89,0.00,,,0.00,,2013-02-21 07:32:00,
2013-02-21 01:42:00,15.0,12.0,30.39,North,351,0.0,0.0,89,0.00,,,0.00,,2013-02-21 07:42:00,
2013-02-21 01:52:00,15.0,12.0,30.39,North,351,0.0,0.0,89,0.00,,,0.00,,2013-02-21 07:52:00,
2013-02-21 02:01:00,15.0,12.0,30.39,North,351,0.0,1.0,87,0.00,,,0.00,,2013-02-21 08:01:00,
2013-02-21 02:11:00,15.0,12.0,30.39,North,351,0.0,1.0,87,0.00,,,0.00,,2013-02-21 08:11:00,
2013-02-21 02:21:00,15.0,12.0,30.38,North,351,0.0,0.0,87,0.00,,,0.00,,2013-02-21 08:21:00,
2013-02-21 02:32:00,14.0,11.0,30.38,North,351,0.0,0.0,87,0.00,,,0.00,,2013-02-21 08:32:00,
2013-02-21 02:41:00,14.0,11.0,30.38,North,351,0.0,0.0,87,0.00,,,0.00,,2013-02-21 08:41:00,
2013-02-21 02:52:00,14.0,11.0,30.37,North,351,0.0,1.0,88,0.00,,,0.00,,2013-02-21 08:52:00,
2013-02-21 03:01:00,14.0,11.0,30.37,North,351,0.0,1.0,88,0.00,,,0.00,,2013-02-21 09:01:00,
2013-02-21 03:11:00,14.0,11.0,30.37,North,351,0.0,1.0,88,0.00,,,0.00,,2013-02-21 09:11:00,
2013-02-21 03:22:00,14.0,11.0,30.37,North,351,0.0,0.0,87,0.00,,,0.00,,2013-02-21 09:22:00,
2013-02-21 03:31:00,14.0,11.0,30.38,North,351,0.0,0.0,88,0.00,,,0.00,,2013-02-21 09:31:00,
2013-02-21 03:41:00,14.0,11.0,30.38,North,351,0.0,0.0,88,0.00,,,0.00,,2013-02-21 09:41:00,
2013-02-21 03:51:00,13.0,10.0,30.38,North,351,0.0,2.0,89,0.00,,,0.00,,2013-02-21 09:51:00,
2013-02-21 04:01:00,13.0,11.0,30.38,North,351,0.0,1.0,90,0.00,,,0.00,,2013-02-21 10:01:00,
2013-02-21 04:11:00,13.0,11.0,30.38,North,351,0.0,1.0,90,0.00,,,0.00,,2013-02-21 10:11:00,
2013-02-21 04:21:00,13.0,10.0,30.40,North,351,0.0,0.0,89,0.00,,,0.00,,2013-02-21 10:21:00,
2013-02-21 04:31:00,13.0,10.0,30.39,North,351,0.0,0.0,89,0.00,,,0.00,,2013-02-21 10:31:00,
2013-02-21 04:41:00,13.0,10.0,30.39,North,351,0.0,0.0,89,0.00,,,0.00,,2013-02-21 10:41:00,
2013-02-21 04:51:00,13.0,10.0,30.39,North,351,0.0,1.0,89,0.00,,,0.00,,2013-02-21 10:51:00,
2013-02-21 05:01:00,13.0,11.0,30.38,North,351,0.0,0.0,90,0.00,,,0.00,,2013-02-21 11:01:00,
2013-02-21 05:11:00,13.0,11.0,30.38,North,351,0.0,0.0,90,0.00,,,0.00,,2013-02-21 11:11:00,
2013-02-21 05:21:00,14.0,12.0,30.39,ENE,61,0.0,3.0,90,0.00,,,0.00,,2013-02-21 11:21:00,
2013-02-21 05:31:00,15.0,12.0,30.37,ENE,57,0.0,2.0,89,0.00,,,0.00,,2013-02-21 11:31:00,
2013-02-21 05:41:00,15.0,12.0,30.37,ENE,57,0.0,2.0,89,0.00,,,0.00,,2013-02-21 11:41:00,
2013-02-21 05:51:00,16.0,13.0,30.36,NNW,348,1.0,3.0,87,0.00,,,0.00,,2013-02-21 11:51:00,
2013-02-21 06:01:00,16.0,13.0,30.36,NNW,348,1.0,3.0,87,0.00,,,0.00,,2013-02-21 12:01:00,
2013-02-21 06:11:00,16.0,13.0,30.36,NNW,348,1.0,3.0,87,0.00,,,0.00,,2013-02-21 12:11:00,
2013-02-21 06:21:00,17.0,14.0,30.39,NNE,24,0.0,3.0,86,0.00,,,0.00,,2013-02-21 12:21:00,
2013-02-21 06:32:00,18.0,14.0,30.38,North,9,0.0,1.0,85,0.00,,,0.00,,2013-02-21 12:32:00,
2013-02-21 06:42:00,18.0,14.0,30.38,North,9,0.0,1.0,85,0.00,,,0.00,,2013-02-21 12:42:00,
2013-02-21 06:52:00,18.0,14.0,30.39,North,9,0.0,0.0,85,0.00,,,0.00,,2013-02-21 12:52:00,
2013-02-21 07:02:00,18.0,14.0,30.37,ENE,59,0.0,1.0,84,0.00,,,0.00,,2013-02-21 13:02:00,
2013-02-21 07:12:00,18.0,14.0,30.37,ENE,59,0.0,1.0,84,0.00,,,0.00,,2013-02-21 13:12:00,
2013-02-21 07:22:00,19.0,15.0,30.37,NE,38,1.0,3.0,83,0.00,,,0.00,,2013-02-21 13:22:00,
2013-02-21 07:32:00,19.0,14.0,30.36,ENE,67,0.0,4.0,82,0.00,,,0.00,,2013-02-21 13:32:00,
2013-02-21 07:41:00,19.0,14.0,30.36,ENE,67,0.0,4.0,82,0.00,,,0.00,,2013-02-21 13:41:00,
2013-02-21 07:51:00,19.0,14.0,30.35,NNW,329,2.0,5.0,81,0.00,,,0.00,,2013-02-21 13:51:00,
2013-02-21 08:02:00,20.0,15.0,30.36,NNE,17,1.0,6.0,80,0.00,,,0.00,,2013-02-21 14:02:00,
2013-02-21 08:11:00,20.0,15.0,30.36,NNE,17,1.0,6.0,80,0.00,,,0.00,,2013-02-21 14:11:00,
2013-02-21 08:21:00,20.0,15.0,30.35,NE,43,0.0,3.0,80,0.00,,,0.00,,2013-02-21 14:21:00,
2013-02-21 08:32:00,21.0,16.0,30.36,NE,42,0.0,5.0,81,0.00,,,0.00,,2013-02-21 14:32:00,
2013-02-21 08:42:00,21.0,16.0,30.36,NE,42,0.0,5.0,81,0.00,,,0.00,,2013-02-21 14:42:00,
2013-02-21 08:52:00,22.0,17.0,30.36,NE,56,0.0,4.0,81,0.00,,,0.00,,2013-02-21 14:52:00,
2013-02-21 09:01:00,22.0,17.0,30.36,NE,41,1.0,4.0,81,0.00,,,0.00,,2013-02-21 15:01:00,
2013-02-21 09:12:00,22.0,17.0,30.36,NE,41,1.0,4.0,81,0.00,,,0.00,,2013-02-21 15:12:00,
2013-02-21 09:21:00,23.0,18.0,30.36,NE,35,2.0,5.0,81,0.00,,,0.00,,2013-02-21 15:21:00,
2013-02-21 09:32:00,24.0,19.0,30.36,ESE,111,0.0,5.0,82,0.00,,,0.00,,2013-02-21 15:32:00,
2013-02-21 09:42:00,24.0,19.0,30.36,ESE,111,0.0,5.0,82,0.00,,,0.00,,2013-02-21 15:42:00,
2013-02-21 09:51:00,24.0,19.0,30.38,ENE,69,2.0,4.0,81,0.00,,,0.00,,2013-02-21 15:51:00,
2013-02-21 10:01:00,25.0,20.0,30.34,NE,48,3.0,8.0,81,0.00,,,0.00,,2013-02-21 16:01:00,
2013-02-21 10:12:00,25.0,20.0,30.34,NE,48,3.0,8.0,81,0.00,,,0.00,,2013-02-21 16:12:00,
2013-02-21 10:22:00,25.0,20.0,30.33,East,83,4.0,8.0,82,0.00,,,0.00,,2013-02-21 16:22:00,
2013-02-21 10:32:00,26.0,22.0,30.34,ENE,69,1.0,12.0,83,0.00,,,0.00,,2013-02-21 16:32:00,
2013-02-21 10:42:00,26.0,21.0,30.33,ENE,62,4.0,8.0,82,0.00,,,0.00,,2013-02-21 16:42:00,
2013-02-21 10:52:00,26.0,21.0,30.33,ENE,62,4.0,8.0,82,0.00,,,0.00,,2013-02-21 16:52:00,
2013-02-21 11:01:00,27.0,23.0,30.32,ENE,64,2.0,7.0,83,0.00,,,0.00,,2013-02-21 17:01:00,
2013-02-21 11:11:00,27.0,23.0,30.32,ENE,64,2.0,7.0,83,0.00,,,0.00,,2013-02-21 17:11:00,
2013-02-21 11:21:00,28.0,23.0,30.30,NE,39,2.0,8.0,82,0.00,,,0.00,,2013-02-21 17:21:00,
2013-02-21 11:32:00,28.0,23.0,30.31,East,92,2.0,9.0,80,0.00,,,0.00,,2013-02-21 17:32:00,
2013-02-21 11:42:00,28.0,23.0,30.31,East,92,2.0,9.0,80,0.00,,,0.00,,2013-02-21 17:42:00,
2013-02-21 11:52:00,28.0,23.0,30.29,ESE,104,4.0,8.0,80,0.00,,,0.00,,2013-02-21 17:52:00,
2013-02-21 12:02:00,28.0,23.0,30.29,ENE,71,2.0,10.0,80,0.00,,,0.00,,2013-02-21 18:02:00,
2013-02-21 12:11:00,28.0,23.0,30.29,ENE,71,2.0,10.0,80,0.00,,,0.00,,2013-02-21 18:11:00,
2013-02-21 12:22:00,28.0,23.0,30.29,ENE,71,2.0,10.0,80,0.00,,,0.00,,2013-02-21 18:22:00,
2013-02-21 12:32:00,29.0,23.0,30.25,ENE,59,3.0,10.0,77,0.00,,,0.00,,2013-02-21 18:32:00,
2013-02-21 12:42:00,29.0,23.0,30.25,ENE,59,3.0,10.0,77,0.00,,,0.00,,2013-02-21 18:42:00,
2013-02-21 12:52:00,29.0,23.0,30.23,ENE,76,3.0,9.0,78,0.00,,,0.00,,2013-02-21 18:52:00,
2013-02-21 13:01:00,29.0,23.0,30.21,ESE,120,4.0,16.0,78,0.00,,,0.00,,2013-02-21 19:01:00,
2013-02-21 13:12:00,29.0,23.0,30.21,ESE,120,4.0,16.0,78,0.00,,,0.00,,2013-02-21 19:12:00,
2013-02-21 13:21:00,30.0,24.0,30.19,ESE,104,5.0,11.0,78,0.00,,,0.00,,2013-02-21 19:21:00,
2013-02-21 13:31:00,30.0,23.0,30.18,East,83,5.0,18.0,76,0.00,,,0.00,,2013-02-21 19:31:00,
2013-02-21 13:41:00,30.0,23.0,30.18,East,83,5.0,18.0,76,0.00,,,0.00,,2013-02-21 19:41:00,
2013-02-21 13:52:00,30.0,23.0,30.20,East,98,5.0,13.0,76,0.00,,,0.00,,2013-02-21 19:52:00,
2013-02-21 14:01:00,30.0,23.0,30.20,East,90,3.0,11.0,76,0.00,,,0.00,,2013-02-21 20:01:00,
2013-02-21 14:11:00,30.0,23.0,30.23,SE,129,5.0,11.0,76,0.00,,,0.00,,2013-02-21 20:11:00,
2013-02-21 14:21:00,30.0,23.0,30.23,SE,129,5.0,11.0,76,0.00,,,0.00,,2013-02-21 20:21:00,
2013-02-21 14:32:00,30.0,24.0,30.24,ESE,104,4.0,11.0,77,0.00,,,0.00,,2013-02-21 20:32:00,
2013-02-21 14:41:00,30.0,24.0,30.24,ESE,104,4.0,11.0,77,0.00,,,0.00,,2013-02-21 20:41:00,
2013-02-21 14:53:00,30.0,24.0,30.22,East,101,4.0,10.0,77,0.00,,,0.00,,2013-02-21 20:53:00,
2013-02-21 15:02:00,30.0,24.0,30.20,East,93,3.0,12.0,77,0.00,,,0.00,,2013-02-21 21:02:00,
2013-02-21 15:11:00,30.0,24.0,30.20,East,93,3.0,12.0,77,0.00,,,0.00,,2013-02-21 21:11:00,
2013-02-21 15:21:00,30.0,24.0,30.21,ENE,78,1.0,9.0,78,0.00,,,0.00,,2013-02-21 21:21:00,
2013-02-21 15:31:00,30.0,24.0,30.20,SE,142,3.0,10.0,77,0.00,,,0.00,,2013-02-21 21:31:00,
2013-02-21 15:42:00,30.0,24.0,30.19,ENE,59,3.0,11.0,78,0.00,,,0.00,,2013-02-21 21:42:00,
2013-02-21 15:52:00,30.0,24.0,30.19,ENE,59,3.0,11.0,78,0.00,,,0.00,,2013-02-21 21:52:00,
2013-02-21 16:01:00,29.0,23.0,30.18,East,90,3.0,10.0,79,0.00,,,0.00,,2013-02-21 22:01:00,
2013-02-21 16:11:00,29.0,23.0,30.18,East,90,3.0,10.0,79,0.00,,,0.00,,2013-02-21 22:11:00,
2013-02-21 16:21:00,29.0,23.0,30.17,East,80,3.0,10.0,79,0.00,,,0.00,,2013-02-21 22:21:00,
2013-02-21 16:31:00,28.0,23.0,30.17,SSE,160,4.0,15.0,80,0.00,,,0.00,,2013-02-21 22:31:00,
2013-02-21 16:42:00,28.0,23.0,30.17,SSE,160,4.0,15.0,80,0.00,,,0.00,,2013-02-21 22:42:00,
2013-02-21 16:52:00,28.0,23.0,30.17,SSE,160,4.0,15.0,80,0.00,,,0.00,,2013-02-21 22:52:00,
2013-02-21 17:01:00,28.0,23.0,30.15,ESE,107,4.0,14.0,81,0.00,,,0.00,,2013-02-21 23:01:00,
2013-02-21 17:11:00,28.0,23.0,30.15,ESE,107,4.0,14.0,81,0.00,,,0.00,,2013-02-21 23:11:00,
2013-02-21 17:21:00,27.0,22.0,30.15,ENE,75,4.0,13.0,81,0.00,,,0.00,,2013-02-21 23:21:00,
2013-02-21 17:32:00,27.0,22.0,30.15,ENE,74,3.0,10.0,81,0.00,,,0.00,,2013-02-21 23:32:00,
2013-02-21 17:41:00,27.0,22.0,30.15,ENE,74,3.0,10.0,81,0.00,,,0.00,,2013-02-21 23:41:00,
2013-02-21 17:52:00,27.0,21.0,30.14,ENE,63,5.0,10.0,79,0.00,,,0.00,,2013-02-21 23:52:00,
2013-02-21 18:01:00,27.0,21.0,30.14,East,91,4.0,14.0,78,0.00,,,0.00,,2013-02-22 00:01:00,
2013-02-21 18:11:00,27.0,21.0,30.14,East,91,4.0,14.0,78,0.00,,,0.00,,2013-02-22 00:11:00,
2013-02-21 18:21:00,27.0,21.0,30.14,East,91,4.0,14.0,78,0.00,,,0.00,,2013-02-22 00:21:00,
2013-02-21 18:31:00,27.0,22.0,30.12,ESE,107,5.0,13.0,80,0.00,,,0.00,,2013-02-22 00:31:00,
2013-02-21 18:41:00,27.0,22.0,30.12,ESE,107,5.0,13.0,80,0.00,,,0.00,,2013-02-22 00:41:00,
2013-02-21 18:52:00,27.0,21.0,30.12,East,99,5.0,13.0,79,0.00,,,0.00,,2013-02-22 00:52:00,
2013-02-21 19:01:00,27.0,21.0,30.09,East,88,6.0,13.0,79,0.00,,,0.00,,2013-02-22 01:01:00,
2013-02-21 19:11:00,27.0,21.0,30.09,East,88,6.0,13.0,79,0.00,,,0.00,,2013-02-22 01:11:00,
2013-02-21 19:21:00,27.0,21.0,30.08,East,82,4.0,16.0,79,0.00,,,0.00,,2013-02-22 01:21:00,
2013-02-21 19:32:00,27.0,21.0,30.06,East,97,9.0,15.0,79,0.00,,,0.00,,2013-02-22 01:32:00,
2013-02-21 19:42:00,27.0,21.0,30.06,East,97,9.0,15.0,79,0.00,,,0.00,,2013-02-22 01:42:00,
2013-02-21 19:52:00,26.0,22.0,30.03,ESE,107,6.0,18.0,85,0.00,,,0.00,,2013-02-22 01:52:00,
2013-02-21 20:02:00,26.0,23.0,30.02,East,92,6.0,19.0,88,0.00,,,0.00,,2013-02-22 02:02:00,
2013-02-21 20:11:00,26.0,23.0,30.02,East,92,6.0,19.0,88,0.00,,,0.00,,2013-02-22 02:11:00,
2013-02-21 20:21:00,25.0,22.0,29.99,ESE,109,8.0,18.0,89,0.00,,,0.00,,2013-02-22 02:21:00,
2013-02-21 20:31:00,25.0,22.0,29.99,East,99,6.0,19.0,89,0.00,,,0.00,,2013-02-22 02:31:00,
2013-02-21 20:42:00,25.0,22.0,29.99,East,99,6.0,19.0,89,0.00,,,0.00,,2013-02-22 02:42:00,
2013-02-21 20:52:00,25.0,22.0,29.99,East,99,6.0,19.0,89,0.00,,,0.00,,2013-02-22 02:52:00,
2013-02-21 21:01:00,26.0,23.0,29.99,ESE,111,6.0,18.0,88,0.00,,,0.00,,2013-02-22 03:01:00,
2013-02-21 21:11:00,26.0,23.0,29.99,ESE,111,6.0,18.0,88,0.00,,,0.00,,2013-02-22 03:11:00,
2013-02-21 21:21:00,26.0,23.0,30.00,SE,130,8.0,17.0,87,0.00,,,0.00,,2013-02-22 03:21:00,
2013-02-21 21:32:00,26.0,23.0,30.01,SE,131,6.0,19.0,88,0.00,,,0.00,,2013-02-22 03:32:00,
2013-02-21 21:41:00,26.0,23.0,30.01,SE,131,6.0,19.0,88,0.00,,,0.00,,2013-02-22 03:41:00,
2013-02-21 21:52:00,25.0,22.0,30.00,SE,133,5.0,18.0,89,0.00,,,0.00,,2013-02-22 03:52:00,
2013-02-21 22:01:00,25.0,23.0,29.99,ENE,71,5.0,14.0,91,0.00,,,0.00,,2013-02-22 04:01:00,
2013-02-21 22:11:00,25.0,23.0,29.99,ENE,71,5.0,14.0,91,0.00,,,0.00,,2013-02-22 04:11:00,
2013-02-21 22:21:00,25.0,23.0,29.97,East,100,5.0,14.0,91,0.00,,,0.00,,2013-02-22 04:21:00,
2013-02-21 22:32:00,25.0,23.0,29.97,East,92,5.0,14.0,91,0.00,,,0.00,,2013-02-22 04:32:00,
2013-02-21 22:42:00,25.0,23.0,29.97,East,92,5.0,14.0,91,0.00,,,0.00,,2013-02-22 04:42:00,
2013-02-21 22:52:00,25.0,23.0,29.98,SE,139,5.0,16.0,91,0.00,,,0.00,,2013-02-22 04:52:00,
2013-02-21 23:01:00,25.0,23.0,29.97,ENE,69,2.0,14.0,91,0.00,,,0.00,,2013-02-22 05:01:00,
2013-02-21 23:12:00,25.0,23.0,29.97,ENE,69,2.0,14.0,91,0.00,,,0.00,,2013-02-22 05:12:00,
2013-02-21 23:22:00,25.0,23.0,29.96,East,90,3.0,11.0,92,0.00,,,0.00,,2013-02-22 05:22:00,
2013-02-21 23:32:00,25.0,23.0,29.96,ESE,105,5.0,13.0,91,0.00,,,0.00,,2013-02-22 05:32:00,
2013-02-21 23:41:00,25.0,23.0,29.96,ESE,105,5.0,13.0,91,0.00,,,0.00,,2013-02-22 05:41:00,
2013-02-21 23:52:00,25.0,23.0,29.95,SE,143,6.0,15.0,92,0.00,,,0.00,,2013-02-22 05:52:00,